Overview Statistics Trail Chart Weather Telemetry Raw packets
 

This is the latest recevied weather packets stored in our database for station/object SQ9SMC-13. If no packets are shown the sender has not sent any weather packets the latest 10 day(s).

<< 51 52 53 54 55 56 57 >>
Time Temp. Humidity Pressure Rain* Wind** Luminosity Snow
1777357204 6.11° C 51% 1026 hPa 0 mm - 240 W/m² -
1777356904 5.56° C 51% 1025.9 hPa 0 mm - 226 W/m² -
1777356603 5.56° C 52% 1026 hPa 0 mm - 215 W/m² -
1777356302 5° C 52% 1025.9 hPa 0 mm - 178 W/m² -
1777356003 4.44° C 54% 1025.9 hPa 0 mm - 138 W/m² -
1777355705 5° C 55% 1025.9 hPa 0 mm - 137 W/m² -
1777355403 5° C 53% 1026 hPa 0 mm - 79 W/m² -
1777355103 5° C 51% 1025.8 hPa 0 mm - 160 W/m² -
1777354803 5.56° C 53% 1025.9 hPa 0 mm - 142 W/m² -
1777354504 5° C 54% 1025.9 hPa 0 mm - 136 W/m² -
1777354207 4.44° C 55% 1025.7 hPa 0 mm - 130 W/m² -
1777353903 4.44° C 56% 1025.6 hPa 0 mm - 61 W/m² -
1777353604 4.44° C 58% 1025.5 hPa 0 mm - 117 W/m² -
1777353303 4.44° C 58% 1025.8 hPa 0 mm - 65 W/m² -
1777353004 4.44° C 59% 1025.5 hPa 0 mm - 79 W/m² -
1777352702 4.44° C 61% 1025.6 hPa 0 mm - 81 W/m² -
1777352403 3.89° C 62% 1025.6 hPa 0 mm - 70 W/m² -
1777352106 3.89° C 63% 1025.5 hPa 0 mm - 55 W/m² -
1777351804 3.89° C 64% 1025.4 hPa 0 mm - 68 W/m² -
1777351502 3.89° C 65% 1025.3 hPa 0 mm - 65 W/m² -
1777351204 3.33° C 67% 1025.3 hPa 0 mm - 62 W/m² -
1777350902 2.78° C 68% 1025.2 hPa 0 mm - 54 W/m² -
1777350603 2.78° C 69% 1025.2 hPa 0 mm - 44 W/m² -
1777350303 2.22° C 70% 1025.2 hPa 0 mm - 36 W/m² -
1777350008 2.22° C 70% 1025 hPa 0 mm - 29 W/m² -

* Rain latest hour (hover to see other rain measurements)
** Current wind speed in m/s (hover to see current wind gust speed)